World > North America > United States > Texas

West Lake Hills, Texas Regional Weather

Lat: 30.29N, Lon: 97.81W
Wx Zone: TXZ192Web Search
West Lake Hills Weather Warning NWS WEATHER ALERT FOR THE WEST LAKE HILLS, TX AREA - Issued: 341 AM CDT Fri Apr 16 2021 West Lake Hills Weather Warning  

Our weather pages are very print friendly and they make great conversation starters.

Feedback


°F Click to change West Lake Hills hourly weather to Imperial units.Click to change West Lake Hills hourly weather to Metric units. °C
West Lake Hills Weather Map
UTC Time: 4/16/2021, 22:46
Your Time:

West Lake Hills, TX Regional Weather

Expires:202104162300;;660020
ASUS44 KSJT 162215
RWRSJT
WEST CENTRAL TEXAS REGIONAL WEATHER ROUNDUP
NATIONAL WEATHER SERVICE SAN ANGELO TX
500 PM CDT FRI APR 16 2021

NOTE: "FAIR" INDICATES FEW OR NO CLOUDS BELOW 12,000 FEET WITH NO
SIGNIFICANT WEATHER AND/OR OBSTRUCTIONS TO VISIBILITY.


TXZ145-158-159-173-191-192-194-205-207-220-223-162300-
CENTRAL AND SOUTH CENTRAL TEXAS
  
CITY           SKY/WX    TMP DP  RH WIND       PRES   REMARKS
AUSTIN/BERGSTM FOG       66  66 100 N12       29.76S VSB 1            
WACO           CLOUDY    65  60  84 N6        29.80S                  
HILLSBORO      CLOUDY    64  64 100 NW9       29.81S                  
TEMPLE         CLOUDY    63  63 100 N12       29.81R FOG              
KILLEEN-GRAY   CLOUDY    64  60  89 N17       29.80R                  
FORT HOOD      CLOUDY    64  61  88 N13       29.81R                  
GEORGETOWN     CLOUDY    66  63  90 N6        29.80S                  
LAGO VISTA     CLOUDY    65  64  98 N6        29.80S FOG              
SAN MARCOS     CLOUDY    68  68 100 N17       29.75F                  
NEW BRAUNFELS  LGT RAIN  70  68  93 N9        29.73F FOG              
RANDOLPH AFB   CLOUDY    70  69  99 N8        29.72                   
SAN ANTONIO    CLOUDY    72  67  84 N12       29.74S                  
STINSON        CLOUDY    74  68  81 N9        29.71S HAZE             
PLEASANTON     NOT AVBL                                               
LA GRANGE      LGT RAIN  70  70 100 N7        29.73R                  
GIDDINGS       DRIZZLE   66  65  95 N13G18    29.76S                  
$$


SKY/WX - Weather  TMP - Temperature  DP - Dew Point  RH - Relative Humidity
WIND - Wind Direction/Speed PRES - Barometric Pressure VSB - Visibility
WCI - Wind Chill Index E13G22 Wind - East Wind 13 mph/Gusts of 22 mph